Showing default

CLARITY-1, 63227

Orbit data source: Space-Track

CLARITY-1, 63227 is an American payload satellite in SSO that was launched on Sat, 15 Mar 2025 UTC via an FALCON 9 launch vehicle from the Air Force Western Test Range (AFWTR). Payload-class satellites include a variety of spacecraft equipped with specific instruments for various scientific and technological missions. These include communications satellites like Starlink; space stations such as the ISS; scientific satellites like the Hubble; Earth observation satellites from companies like Planet Labs, Umbra, and HawkEye 360; GPS; miniature CubeSats for education and research; and military/defense satellites.

Loading next visibility...
Identifier
63227, 2025-052T
Orbit
SSO
Country
Flag of USUS
Related business
Manufacturer
ALBEDO
Mission
Operational Commercial Imaging
Bus & Motor
ALBEDO, Unknown motor
Mass
530 kg wet, 485 kg dry
Launch date (UTC)
2025-03-15 (8 months ago)
Launch vehicle
FALCON 9
Launch site
Air Force Western Test Range (AFWTR)
Object type
Payload
Rocket body
Debris
Shape & HBR
Hex Cyl, 1.1 m
Radar Cross Section
2.290 m², Medium (>0.1 m² and < 1m²)

Expand to show TLE details & history
Last TLE update: 19 hours ago

TLE from 19 hours ago
0 CLARITY-1
1 63227U 25052T   25318.25575338  .00052151  00000-0  51300-3 0  9997
2 63227  97.4312 217.7091 0003103  95.2415 264.9199 15.65850214 37690
Epoch: 2025-11-14T06:08Z
TLE epoch observation values (Epoch: 2025-11-14T06:08:17.092Z)
Latitude
0.00001°
Longitude
72.03601°
Altitude
374.132 km
Speed
7.685 km/s
True Right ascension
14h 30m 50s
True Declination
0° 00' 00"
Sunlit
Object was in daylight at epoch
Visualization orbit readout
Latitude
Unknown
Longitude
Unknown
Altitude
Unknown
Speed
Unknown
Apparent Right ascension
Unknown
Apparent Declination
Unknown
Sunlit
N/A
Visualization observer readout
Local Sidereal Time
21:37:28
Azimuth
Unknown
Elevation
Unknown
Doppler factor
Unknown
Orbital elements
Apogee altitude
369.794 km
Perigee altitude
365.608 km
Semi-major axis
6,745.838 km
Eccentricity
0.00031
Inclination
97.4312°
RAAN
217.7091°
Arg. of periapsis
95.2415°
True anomaly
264.88448°
Mean anomaly
264.9199°
Eccentric anomaly
264.90219°
Mean motion
3.91732 °/min
Orbital period
91.9 mins
BSTAR
0.000513
Loading maneuver chart data...
Computing Atmospheric mass density...
Loading historical data...
Loading historical data...
Loading historical data...
Loading historical data...
Loading historical data...
Loading historical data...
Loading historical data...

Documentation

Showing up to 5 results
|